Hourly Weather Bolshoe Alitovo

Today, 17 June, Thursday

Time Temperature Precipitation Wind Pressure Humidity
00:00 +13°C° 0 mm 3 mps 745 mmHg 74%
01:00 +13°C° 0 mm 3 mps 745 mmHg 74%
02:00 +12°C° 0 mm 3 mps 746 mmHg 74%
03:00 +11°C° 0 mm 3 mps 746 mmHg 75%
04:00 +12°C° 0 mm 3 mps 746 mmHg 77%
05:00 +12°C° 0 mm 3 mps 747 mmHg 79%
06:00 +12°C° 0 mm 3 mps 747 mmHg 81%
07:00 +14°C° 0 mm 3 mps 748 mmHg 76%
08:00 +17°C° 0 mm 3 mps 748 mmHg 71%
09:00 +19°C° 0 mm 3 mps 748 mmHg 67%
10:00 +20°C° 0 mm 3 mps 749 mmHg 63%
11:00 +20°C° 0 mm 3 mps 749 mmHg 60%
12:00 +21°C° 0 mm 4 mps 749 mmHg 56%
13:00 +22°C° 0 mm 4 mps 749 mmHg 56%
14:00 +22°C° 0 mm 4 mps 749 mmHg 55%
15:00 +22°C° 0 mm 3 mps 749 mmHg 55%
16:00 +22°C° 0 mm 3 mps 749 mmHg 59%
17:00 +22°C° 0 mm 3 mps 749 mmHg 63%
18:00 +21°C° 0 mm 3 mps 749 mmHg 67%
19:00 +20°C° 0 mm 3 mps 750 mmHg 71%
20:00 +18°C° 0 mm 3 mps 750 mmHg 74%
21:00 +16°C° 0 mm 2 mps 750 mmHg 78%
22:00 +15°C° 0 mm 2 mps 750 mmHg 77%
23:00 +15°C° 0 mm 2 mps 750 mmHg 76%

Tomorrow, 18 June, Friday

Time Temperature Precipitation Wind Pressure Humidity
00:00 +14°C° 0 mm 2 mps 751 mmHg 76%
01:00 +13°C° 0 mm 2 mps 751 mmHg 76%
02:00 +13°C° 0 mm 2 mps 751 mmHg 77%
03:00 +13°C° 0 mm 1 mps 751 mmHg 77%
04:00 +13°C° 0 mm 1 mps 751 mmHg 78%
05:00 +14°C° 0 mm 1 mps 752 mmHg 78%
06:00 +15°C° 0 mm 1 mps 752 mmHg 79%
07:00 +17°C° 0 mm 2 mps 752 mmHg 75%
08:00 +18°C° 0 mm 2 mps 752 mmHg 71%
09:00 +20°C° 0 mm 2 mps 752 mmHg 67%
10:00 +20°C° 0 mm 2 mps 752 mmHg 64%
11:00 +21°C° 0 mm 2 mps 752 mmHg 61%
12:00 +23°C° 0 mm 2 mps 752 mmHg 58%
13:00 +23°C° 0 mm 2 mps 752 mmHg 57%
14:00 +24°C° 0 mm 2 mps 752 mmHg 57%
15:00 +24°C° 0 mm 2 mps 752 mmHg 56%
16:00 +24°C° 0 mm 2 mps 752 mmHg 59%
17:00 +24°C° 0 mm 2 mps 752 mmHg 62%
18:00 +24°C° 0 mm 1 mps 751 mmHg 65%
19:00 +22°C° 0 mm 1 mps 751 mmHg 70%
20:00 +20°C° 0 mm 1 mps 751 mmHg 76%
21:00 +18°C° 0 mm 1 mps 751 mmHg 81%
22:00 +18°C° 0 mm 1 mps 751 mmHg 82%
23:00 +16°C° 0 mm 1 mps 752 mmHg 84%

Day after tomorrow, 19 June, Saturday

Time Temperature Precipitation Wind Pressure Humidity
00:00 +15°C° 0 mm 1 mps 752 mmHg 85%
01:00 +15°C° 0 mm 1 mps 752 mmHg 86%
02:00 +15°C° 0 mm 1 mps 752 mmHg 86%
03:00 +14°C° 0 mm 1 mps 752 mmHg 87%
04:00 +15°C° 0 mm 1 mps 752 mmHg 86%
05:00 +16°C° 0 mm 1 mps 752 mmHg 85%
06:00 +16°C° 0 mm 1 mps 752 mmHg 84%
07:00 +19°C° 0 mm 1 mps 752 mmHg 79%
08:00 +20°C° 0 mm 1 mps 752 mmHg 74%
09:00 +22°C° 0 mm 1 mps 752 mmHg 69%
10:00 +23°C° 0 mm 2 mps 752 mmHg 66%
11:00 +24°C° 0 mm 2 mps 752 mmHg 64%
12:00 +24°C° 0 mm 2 mps 752 mmHg 62%
13:00 +25°C° 0 mm 2 mps 752 mmHg 61%
14:00 +25°C° 0 mm 2 mps 751 mmHg 61%
15:00 +25°C° 0 mm 2 mps 751 mmHg 60%
16:00 +25°C° 0 mm 2 mps 751 mmHg 63%
17:00 +25°C° 0 mm 2 mps 750 mmHg 67%
18:00 +25°C° 0 mm 2 mps 750 mmHg 70%
19:00 +23°C° 0 mm 2 mps 750 mmHg 74%
20:00 +20°C° 0 mm 2 mps 750 mmHg 79%
21:00 +18°C° 0 mm 2 mps 750 mmHg 83%
22:00 +18°C° 0 mm 2 mps 750 mmHg 85%
23:00 +17°C° 0 mm 2 mps 750 mmHg 86%

20 June, Sunday

Time Temperature Precipitation Wind Pressure Humidity
00:00 +16°C° 0 mm 2 mps 750 mmHg 88%
01:00 +16°C° 0 mm 2 mps 750 mmHg 88%
02:00 +15°C° 0 mm 2 mps 750 mmHg 89%
03:00 +15°C° 0 mm 2 mps 750 mmHg 89%
04:00 +15°C° 0 mm 1 mps 750 mmHg 88%
05:00 +16°C° 0 mm 1 mps 750 mmHg 86%
06:00 +18°C° 0 mm 1 mps 750 mmHg 84%
07:00 +19°C° 0 mm 1 mps 750 mmHg 80%
08:00 +20°C° 0 mm 2 mps 750 mmHg 75%
09:00 +21°C° 0 mm 2 mps 750 mmHg 70%
10:00 +23°C° 0 mm 2 mps 750 mmHg 66%
11:00 +24°C° 0 mm 2 mps 750 mmHg 63%
12:00 +25°C° 0 mm 3 mps 750 mmHg 59%
13:00 +26°C° 0 mm 2 mps 750 mmHg 58%
14:00 +26°C° 0 mm 2 mps 749 mmHg 56%
15:00 +27°C° 0 mm 2 mps 749 mmHg 55%
16:00 +26°C° 0 mm 2 mps 749 mmHg 59%
17:00 +26°C° 0 mm 2 mps 749 mmHg 62%
18:00 +26°C° 0 mm 1 mps 749 mmHg 65%
19:00 +25°C° 0 mm 1 mps 749 mmHg 69%
20:00 +23°C° 0 mm 2 mps 748 mmHg 74%
21:00 +20°C° 0 mm 2 mps 748 mmHg 78%
22:00 +19°C° 0 mm 2 mps 748 mmHg 80%
23:00 +19°C° 0 mm 2 mps 748 mmHg 82%

21 June, Monday

Time Temperature Precipitation Wind Pressure Humidity
00:00 +18°C° 0 mm 2 mps 748 mmHg 84%
01:00 +18°C° 0 mm 2 mps 748 mmHg 85%
02:00 +18°C° 0 mm 1 mps 748 mmHg 86%
03:00 +18°C° 0 mm 1 mps 748 mmHg 88%
04:00 +19°C° 0 mm 1 mps 748 mmHg 86%
05:00 +19°C° 0 mm 1 mps 748 mmHg 85%
06:00 +20°C° 0 mm 1 mps 748 mmHg 84%
07:00 +22°C° 0 mm 1 mps 748 mmHg 80%
08:00 +23°C° 0 mm 1 mps 748 mmHg 75%
09:00 +24°C° 0 mm 2 mps 748 mmHg 71%
10:00 +25°C° 0 mm 2 mps 748 mmHg 67%
11:00 +26°C° 0 mm 2 mps 748 mmHg 64%
12:00 +27°C° 0 mm 2 mps 748 mmHg 60%
13:00 +28°C° 0 mm 2 mps 748 mmHg 59%
14:00 +28°C° 0 mm 2 mps 748 mmHg 57%
15:00 +29°C° 0 mm 2 mps 748 mmHg 56%
16:00 +29°C° 0 mm 2 mps 748 mmHg 60%
17:00 +28°C° 0 mm 2 mps 747 mmHg 64%
18:00 +28°C° 0 mm 2 mps 747 mmHg 69%
19:00 +26°C° 0 mm 2 mps 747 mmHg 73%
20:00 +25°C° 0 mm 1 mps 747 mmHg 78%
21:00 +23°C° 0 mm 1 mps 747 mmHg 82%
22:00 +22°C° 0 mm 1 mps 747 mmHg 84%
23:00 +22°C° 0 mm 1 mps 747 mmHg 85%

22 June, Tuesday

Time Temperature Precipitation Wind Pressure Humidity
00:00 +21°C° 0 mm 1 mps 747 mmHg 86%
01:00 +21°C° 0 mm 1 mps 747 mmHg 87%
02:00 +20°C° 0 mm 1 mps 748 mmHg 87%
03:00 +20°C° 0 mm 1 mps 748 mmHg 88%
04:00 +21°C° 0 mm 1 mps 748 mmHg 87%
05:00 +22°C° 0 mm 1 mps 748 mmHg 86%
06:00 +22°C° 0 mm 1 mps 748 mmHg 84%
07:00 +24°C° 0 mm 1 mps 748 mmHg 80%
08:00 +25°C° 0 mm 1 mps 748 mmHg 76%
09:00 +26°C° 0 mm 2 mps 748 mmHg 72%
10:00 +27°C° 0 mm 1 mps 748 mmHg 68%
11:00 +28°C° 0 mm 1 mps 748 mmHg 64%
12:00 +29°C° 0 mm 1 mps 748 mmHg 60%
13:00 +30°C° 0 mm 1 mps 748 mmHg 58%
14:00 +30°C° 0 mm 1 mps 748 mmHg 56%
15:00 +30°C° 0 mm 1 mps 748 mmHg 54%
16:00 +30°C° 0 mm 1 mps 748 mmHg 57%
17:00 +30°C° 0 mm 1 mps 748 mmHg 61%
18:00 +30°C° 0 mm 1 mps 748 mmHg 64%
19:00 +28°C° 0 mm 1 mps 748 mmHg 68%
20:00 +26°C° 0 mm 1 mps 748 mmHg 72%
21:00 +25°C° 0 mm 1 mps 748 mmHg 76%
22:00 +24°C° 0 mm 1 mps 748 mmHg 79%
23:00 +23°C° 0 mm 1 mps 748 mmHg 81%
Show more